This is the latest recevied weather packets stored in our database for station/object AG7BI. If no packets are shown the sender has not sent any weather packets the latest 10 day(s).
| Time | Temp. | Humidity | Pressure | Rain* | Wind** | Luminosity | Snow |
|---|---|---|---|---|---|---|---|
| 1777872052 | 17.22° C | 48% | 1010 hPa | 0 mm | - | - | - |
| 1777871752 | 17.22° C | 48% | 1009.8 hPa | 0 mm | - | - | - |
| 1777871452 | 17.78° C | 46% | 1009.8 hPa | 0 mm | - | - | - |
| 1777871152 | 17.78° C | 45% | 1009.7 hPa | 0 mm | - | - | - |
| 1777870852 | 17.78° C | 45% | 1009.8 hPa | 0 mm | - | - | - |
| 1777870552 | 17.78° C | 46% | 1009.9 hPa | 0 mm | - | - | - |
| 1777870252 | 17.78° C | 43% | 1009.7 hPa | 0 mm | - | - | - |
| 1777869952 | 17.22° C | 44% | 1009.7 hPa | 0 mm | - | - | - |
| 1777869652 | 17.22° C | 45% | 1009.7 hPa | 0 mm | - | - | - |
| 1777869352 | 17.22° C | 46% | 1009.6 hPa | 0 mm | - | - | - |
| 1777869052 | 17.22° C | 48% | 1010 hPa | 0 mm | - | - | - |
| 1777868752 | 17.22° C | 45% | 1009.8 hPa | 0 mm | - | - | - |
| 1777868452 | 17.78° C | 47% | 1009.6 hPa | 0 mm | - | - | - |
| 1777868152 | 17.78° C | 46% | 1010.1 hPa | 0 mm | - | - | - |
| 1777867852 | 17.78° C | 45% | 1009.9 hPa | 0 mm | - | - | - |
| 1777867552 | 17.78° C | 44% | 1009.8 hPa | 0 mm | - | - | - |
| 1777867252 | 18.33° C | 44% | 1009.9 hPa | 0 mm | - | - | - |
| 1777866952 | 18.33° C | 44% | 1009.8 hPa | 0 mm | - | - | - |
| 1777866652 | 18.33° C | 44% | 1009.6 hPa | 0 mm | - | - | - |
| 1777866352 | 18.33° C | 44% | 1009.5 hPa | 0 mm | - | - | - |
| 1777866052 | 18.33° C | 46% | 1009.6 hPa | 0 mm | - | - | - |
| 1777865752 | 18.33° C | 45% | 1009.3 hPa | 0 mm | - | - | - |
| 1777865452 | 18.89° C | 45% | 1009.5 hPa | 0 mm | - | - | - |
| 1777865152 | 18.89° C | 46% | 1009.6 hPa | 0 mm | - | - | - |
| 1777864852 | 18.89° C | 44% | 1009.6 hPa | 0 mm | - | - | - |
* Rain latest hour (hover to see other rain measurements)
** Current wind speed in m/s (hover to see current wind gust speed)